Regional Weather Roundup
Issued by NWS Bismarck, ND

Home | Current Version | Previous Version | Text Only | Print | Product List | Glossary On
Versions: 1 2 3 4 5 6 7 8 9 10 11 12 13 14 15 16 17 18 19 20 21 22 23 24 25 26 27 28 29 30 31 32 33 34 35 36 37 38 39 40 41 42 43 44 45 46 47 48 49 50
000
ASUS43 KBIS 032102
RWRBIS

NWR BROADCAST TEXT
NATIONAL WEATHER SERVICE BISMARCK ND
400 PM CDT TUE MAY 03 2016

NOTE: "FAIR" INDICATES FEW OR NO CLOUDS BELOW 12,000 FEET WITH NO
SIGNIFICANT WEATHER AND/OR OBSTRUCTIONS TO VISIBILITY.


CITY           SKY/WX    TMP DP  RH WIND       PRES   REMARKS
WILLISTON      SUNNY     82  38  20 N14G26    30.03S
MINOT          SUNNY     79  31  17 NW18G26   30.00S
MINOT AFB      SUNNY     74  34  22 N20       29.99F
BISMARCK       SUNNY     75  36  24 N17G30    29.97S
DICKINSON      SUNNY     75  34  22 NW17G25   30.03S
GARRISON         N/A     75  35  23 N20       30.00S
HETTINGER ARPT SUNNY     77  35  21 N10G21    30.05S
JAMESTOWN      SUNNY     70  27  20 N24G33    29.92S
CARRINGTON     FAIR      70  27  19 N17G29    29.97S
HAZEN          FAIR      75  36  23 N16G28    30.02S
OAKES            N/A    N/A N/A N/A MISG        N/A
STANLEY        FAIR      75  36  23 N15G23    30.05S
$$

CITY           SKY/WX    TMP DP  RH WIND       PRES   REMARKS
GRAND FORKS    SUNNY     67  31  26 N29G38    29.89S
GRAND FORKS AF SUNNY     66  28  24 N22G31    29.91R
DEVILS LAKE    SUNNY     67  24  19 N25G32    29.96R
FARGO          SUNNY     70  28  21 N36G43    29.85R
CAVALIER       FAIR      63  32  31 N22G36    29.94S
GRAFTON        FAIR      64  32  29 N28G33    29.93R
GWINNER        FAIR      72  27  18 N23G35    29.88R
LANGDON        FAIR      64  27  24 N23G33    29.97R
$$

CITY           SKY/WX    TMP DP  RH WIND       PRES   REMARKS
ABERDEEN       SUNNY     77  40  26 N29G37    29.87S
MOBRIDGE       SUNNY     79  41  25 N18G30    29.92F
BUFFALO          N/A     76  33  21 N16       30.01F
RAPID CITY     SUNNY     72  39  30 N17G26    30.08S
GLASGOW        SUNNY     80  37  21 NE9       30.06F
SIDNEY         SUNNY     79  37  22 N8        30.05F
WOLF POINT     SUNNY     81  41  24 VRB5      30.05F
GLENDIVE       SUNNY     77  36  22 N5        30.10S
MILES CITY     SUNNY     78  34  20 NW7       30.08F
BAKER          SUNNY     76  33  21 N5G16     30.10R
$$

CITY           SKY/WX    TMP DP  RH WIND       PRES   REMARKS
BILLINGS       MOSUNNY   74  32  21 VRB5      30.13F
GREAT FALLS    SUNNY     76  28  17 CALM      30.08F
$$





USA.gov is the U.S. government's official web portal to all federal, state and local government web resources and services.